This demonstration page uses our WeatherBlox Daily Observations layout. Learn more.

38.89511, -77.03637

Hourly Observations for September 5, 2015

Temp ( °F °C ) Dew Point ( °F °C ) Humidity (%) Winds ( mph kmh ) Pressure ( in mb ) Visibility ( mi km ) Precip ( " mm )
12:52 am 00:52 Mostly Cloudy 76 24.4 70 21.1 82 82 E 7 11 30.15 1021 10 16.0934 0 0
1:52 am 01:52 Mostly Cloudy 76 24.4 70 21.1 82 82 E 7 11 30.16 1021 10 16.0934 0 0
2:35 am 02:35 Mostly Cloudy 75 24 70 21 83 83 ENE 7 11 30.15 1021 10 16.0934 0 0
2:52 am 02:52 Mostly Cloudy 75 23.9 70 21.1 84 84 ENE 8 13 30.15 1021 10 16.0934 0 0
2:59 am 02:59 Partly Cloudy 75 24 70 21 83 83 ENE 8 13 30.15 1021 10 16.0934 0 0
3:52 am 03:52 Cloudy 75 23.9 69 20.6 82 82 NE 9 15 30.16 1021 10 16.0934 0 0
4:52 am 04:52 Cloudy 75 23.9 69 20.6 82 82 NE 8 13 30.17 1022 10 16.0934 0 0
5:23 am 05:23 Cloudy 73 23 70 21 89 89 NE 9 15 30.18 1022 10 16.0934 0 0
5:52 am 05:52 Cloudy 74 23.3 69 20.6 85 85 NE 9 15 30.19 1022 10 16.0934 0 0
6:52 am 06:52 Cloudy 74 23.3 69 20.6 85 85 ENE 10 17 30.21 1023 10 16.0934 0 0
7:00 am 07:00 Cloudy 73 23 70 21 89 89 ENE 13 20 30.21 1023 10 16.0934 0 0
7:52 am 07:52 Cloudy 74 23.3 68 20 82 82 ENE 10 17 30.22 1023 10 16.0934 0 0
8:52 am 08:52 Cloudy 76 24.4 68 20 77 77 ENE 9 15 30.22 1024 10 16.0934 0 0
9:52 am 09:52 Mostly Cloudy 77 25 67 19.4 71 71 NE 9 15 30.23 1024 10 16.0934 0 0
10:10 am 10:10 Mostly Cloudy 79 26 66 19 65 65 NE 8 13 30.24 1024 10 16.0934 0 0
10:17 am 10:17 Mostly Cloudy 79 26 66 19 65 65 ENE 8 13 30.24 1024 10 16.0934 0 0
10:52 am 10:52 Mostly Cloudy 80 26.7 66 18.9 62 62 NE 9 15 30.24 1024 10 16.0934 0 0
11:52 am 11:52 Mostly Cloudy 81 27.2 65 18.3 58 58 NNE 8 13 30.23 1024 10 16.0934 0 0
12:52 pm 12:52 Mostly Cloudy 82 27.8 64 17.8 55 55 ENE 8 13 30.22 1024 10 16.0934 0 0
1:52 pm 13:52 Partly Cloudy 85 29.4 65 18.3 51 51 ESE 7 11 30.21 1023 10 16.0934 0 0
2:52 pm 14:52 Partly Cloudy 85 29.4 66 18.9 53 53 E 9 15 30.2 1023 10 16.0934 0 0
3:52 pm 15:52 Mostly Cloudy 85 29.4 65 18.3 51 51 ESE 6 9 30.19 1022 10 16.0934 0 0
4:52 pm 16:52 Partly Cloudy 84 28.9 64 17.8 51 51 ESE 7 11 30.18 1022 10 16.0934 0 0
5:52 pm 17:52 Mostly Cloudy 84 28.9 63 17.2 49 49 E 7 11 30.17 1022 10 16.0934 0 0
6:52 pm 18:52 Mostly Cloudy 82 27.8 64 17.8 55 55 E 7 11 30.16 1021 10 16.0934 0 0
7:52 pm 19:52 Mostly Cloudy 80 26.7 65 18.3 60 60 ESE 6 9 30.16 1021 10 16.0934 0 0
8:52 pm 20:52 Partly Cloudy 78 25.6 66 18.9 67 67 SE 7 11 30.19 1022 10 16.0934 0 0
9:52 pm 21:52 Partly Cloudy 77 25 66 18.9 69 69 SE 15 24 30.2 1023 10 16.0934 0 0
10:52 pm 22:52 Partly Cloudy 74 23.3 65 18.3 74 74 SE 10 17 30.22 1023 10 16.0934 0 0
11:52 pm 23:52 Mostly Cloudy 74 23.3 64 17.8 71 71 SE 3 6 30.22 1023 10 16.0934 0 0

Powered by AerisWeather